Location: San Gennaro Vesuviano
(40.8833°N, 14.5333°E)
Time: 09:24:46
(UTC+00:00)

COSMOS 2428 - Pass Details

Date: 22 April 2021
Orbit: 844 x 859 km, 70.9° (Epoch: 10 May)

Event Time Altitude Azimuth Distance (km) Brightness Sun altitude
Rises 18:07:39 0° 339° (NNW) 3,441 6.5 -4.2°
Reaches altitude 10° 18:10:10 10° 343° (NNW) 2,501 5.7 -4.6°
Maximum altitude 18:15:50 58° 63° (ENE) 993 2.9 -5.6°
Drops below altitude 10° 18:21:28 10° 142° (SE) 2,485 4.6 -6.6°
Enters shadow 18:23:13 - 146° (SE) 3,139 5.1 -6.9°
